Home > Weather > São Tomé > Past weeks

Flag for Sao Tome and Principe Past Weather in São Tomé, Sao Tome and Principe — Yesterday and Last 2 Weeks

Now
79 °F

Passing clouds.


Feels Like: 82 °F
Forecast: 77 / 82 °F
Wind: 12 mph from South

Location: S. Tome

Current Time: Jul 1, 2016 at 4:37:56 AM

Latest Report: Jul 1, 2016 at 4:00 AM


Visibility: N/A

Pressure: 29.98 "Hg

Humidity: 84%

Dew Point: 73 °F

Location of São ToméLocation

Past Weather in São Tomé — Graph

°F

São Tomé Temperature Yesterday

Maximum temperature yesterday: 86 °F (at 12:00 PM)
Minimum temperature yesterday: 73 °F (at 6:00 AM)
Average temperature yesterday: 79 °F

High & Low Weather Summary for the Past Weeks

 TemperatureHumidityPressure
High86 °F (Jun 24, 11:00 AM)94% (Jun 16, 4:00 AM)30.07 "Hg (Jun 16, 4:00 AM)
Low68 °F (Jun 21, 6:00 AM)62% (Jun 24, 11:00 AM)29.89 "Hg (Jun 24, 2:00 PM)
Average79 °F80%29.97 "Hg
* Reported Jun 16 4:00 AM — Jul 1 3:00 AM, São Tomé, Weather by CustomWeather, © 2016

Note: Actual official high and low records may vary slightly from our data, if they occured in-between our weather recording intervals... More about our weather records

Advertising

São Tomé Weather History for the Previous 24 Hours

Scroll right to see more
 ConditionsComfort  
Time TempWeatherWind HumidityBarometerVisibility
3:00 AM
Fri, Jul 1
79 °FPassing clouds.14 mph84%29.98 "HgN/A
2:00 AM79 °FPassing clouds.12 mph84%29.98 "HgN/A
1:00 AM79 °FPassing clouds.9 mph84%29.98 "HgN/A
12:00 AM79 °FPassing clouds.12 mph84%30.01 "HgN/A
10:00 PM
Thu, Jun 30
79 °FPassing clouds.12 mph84%30.01 "HgN/A
9:00 PM79 °FPassing clouds.14 mph84%30.01 "HgN/A
8:00 PM79 °FPassing clouds.12 mph84%29.98 "HgN/A
7:00 PM79 °FPassing clouds.12 mph84%29.98 "HgN/A
5:00 PM82 °FPartly sunny.2 mph74%29.95 "HgN/A
3:00 PM86 °FPartly sunny.9 mph70%29.95 "HgN/A
2:00 PM86 °FPartly sunny.12 mph70%29.95 "HgN/A
1:00 PM86 °FPartly sunny.12 mph70%29.95 "HgN/A
12:00 PM86 °FScattered clouds.7 mph70%29.98 "HgN/A
11:00 AM82 °FScattered clouds.5 mph79%30.01 "HgN/A
9:00 AM81 °FPartly sunny.12 mph79%30.04 "HgN/A
8:00 AM79 °FPartly sunny.5 mph84%30.01 "HgN/A
7:00 AM75 °FScattered clouds.2 mph83%30.01 "HgN/A
6:00 AM73 °FPartly sunny.2 mph89%29.98 "HgN/A
5:00 AM75 °FPartly cloudy.7 mph89%29.95 "HgN/A
4:00 AM75 °FPartly cloudy.5 mph89%29.95 "HgN/A
Weather by CustomWeather, © 2016

See weather overviewHow to use our weather pages